Total_Precipitation_Accumulation
0.13 0.15 0.19 0.24 0.26 0.28 0.30 0.30 0.31 0.35 0.40 0.41 0.38 0.35 0.38 0.45 0.54 0.59 0.60 0.62 0.66 0.66 0.66 0.68 0.68 0.68 0.70 0.69 0.70 0.71 0.76 0.92 0.94 0.42 0.28 0.35 0.47 0.51 0.51 0.48 0.46 0.47 0.47
0.15 0.17 0.18 0.24 0.30 0.34 0.37 0.38 0.40 0.42 0.44 0.47 0.48 0.46 0.40 0.38 0.46 0.54 0.58 0.60 0.65 0.68 0.70 0.74 0.76 0.76 0.79 0.80 0.83 0.82 0.80 0.84 0.96 0.69 0.39 0.38 0.46 0.52 0.57 0.56 0.49 0.46 0.45
0.16 0.18 0.21 0.25 0.32 0.40 0.44 0.47 0.47 0.48 0.52 0.53 0.53 0.55 0.51 0.50 0.53 0.56 0.59 0.62 0.62 0.63 0.65 0.72 0.76 0.83 0.87 0.85 0.87 0.87 0.82 0.76 0.79 0.79 0.54 0.43 0.47 0.52 0.57 0.61 0.59 0.56 0.51
0.23 0.24 0.29 0.35 0.40 0.45 0.50 0.51 0.51 0.53 0.55 0.58 0.59 0.59 0.61 0.67 0.78 0.80 0.71 0.70 0.66 0.64 0.63 0.68 0.75 0.86 0.95 1.01 1.07 0.98 0.90 0.94 0.94 0.93 0.76 0.60 0.56 0.57 0.70 0.74 0.71 0.65 0.62
0.37 0.39 0.38 0.38 0.43 0.43 0.46 0.49 0.51 0.55 0.57 0.58 0.57 0.60 0.65 0.77 1.06 1.08 0.91 0.81 0.75 0.71 0.68 0.68 0.72 0.88 1.09 1.29 1.41 1.34 1.28 1.31 1.25 1.22 1.07 0.87 0.74 0.75 0.81 0.79 0.83 0.73 0.71
0.44 0.47 0.45 0.40 0.40 0.45 0.45 0.46 0.50 0.53 0.53 0.53 0.52 0.54 0.64 0.81 1.19 1.22 1.01 0.79 0.76 0.76 0.75 0.69 0.66 0.75 0.86 1.04 1.26 1.33 1.42 1.52 1.56 1.50 1.38 1.19 0.91 0.81 0.85 0.99 1.10 1.11 0.97
0.44 0.49 0.51 0.45 0.40 0.43 0.44 0.44 0.43 0.44 0.45 0.45 0.45 0.46 0.49 0.66 1.05 1.13 0.98 0.74 0.66 0.67 0.67 0.62 0.62 0.60 0.66 0.64 0.76 0.86 0.96 1.14 1.37 1.53 1.60 1.31 1.04 0.92 1.07 1.28 1.32 1.29 1.07
0.41 0.41 0.43 0.39 0.33 0.36 0.40 0.39 0.36 0.36 0.40 0.41 0.41 0.41 0.38 0.44 0.81 1.06 0.94 0.65 0.59 0.60 0.59 0.61 0.62 0.60 0.59 0.66 0.73 0.76 0.72 0.75 0.97 1.21 1.36 1.22 1.12 1.12 1.30 1.55 1.69 1.75 1.43
0.30 0.28 0.30 0.27 0.27 0.32 0.36 0.33 0.31 0.31 0.32 0.35 0.38 0.42 0.40 0.38 0.62 1.01 1.02 0.68 0.64 0.59 0.59 0.71 0.76 0.68 0.71 0.85 0.96 0.94 0.77 0.67 0.74 1.02 1.27 1.31 1.35 1.53 1.74 2.07 2.34 2.41 2.11
0.21 0.21 0.26 0.25 0.23 0.27 0.32 0.31 0.30 0.29 0.32 0.35 0.38 0.45 0.44 0.39 0.52 0.92 1.17 0.80 0.70 0.62 0.62 0.74 0.98 0.95 0.93 0.98 1.03 1.04 0.99 0.76 0.68 0.73 0.81 0.91 0.96 1.04 1.38 1.73 1.97 2.19 2.16
0.16 0.18 0.25 0.27 0.25 0.24 0.27 0.30 0.30 0.31 0.33 0.35 0.37 0.42 0.45 0.41 0.44 0.74 1.19 1.08 0.85 0.75 0.73 0.80 0.94 1.00 0.99 1.00 1.05 1.03 1.06 1.00 0.96 0.93 0.87 0.82 0.84 0.95 1.11 1.36 1.60 1.84 2.04
0.14 0.17 0.22 0.30 0.27 0.26 0.27 0.27 0.28 0.32 0.35 0.37 0.39 0.41 0.43 0.45 0.47 0.63 0.96 1.16 1.07 0.86 0.80 0.74 0.82 0.93 0.97 1.00 0.97 0.99 1.05 1.07 1.02 0.98 0.89 0.82 0.81 0.86 0.94 1.09 1.34 1.50 1.62
0.13 0.17 0.22 0.28 0.27 0.26 0.27 0.28 0.29 0.30 0.36 0.41 0.43 0.45 0.45 0.47 0.51 0.65 0.76 0.85 0.97 0.89 0.87 1.01 0.97 0.93 0.89 0.84 0.83 0.89 0.90 0.86 0.89 0.87 0.76 0.66 0.63 0.69 0.80 0.96 1.14 1.32 1.44
0.12 0.18 0.22 0.26 0.28 0.28 0.26 0.27 0.29 0.34 0.48 0.56 0.55 0.54 0.49 0.49 0.58 0.78 0.82 0.77 0.83 0.87 0.86 0.95 0.95 0.84 0.74 0.69 0.71 0.73 0.73 0.77 0.84 0.84 0.73 0.63 0.59 0.64 0.76 0.88 1.05 1.20 1.41
0.13 0.17 0.23 0.27 0.29 0.30 0.28 0.28 0.32 0.36 0.58 0.82 0.78 0.77 0.77 0.75 0.84 1.12 1.12 1.01 1.01 1.03 1.04 1.04 0.95 0.81 0.73 0.64 0.61 0.58 0.59 0.68 0.78 0.77 0.76 0.76 0.72 0.73 0.75 0.80 0.98 1.13 1.31
0.17 0.19 0.24 0.29 0.31 0.31 0.30 0.31 0.32 0.36 0.46 0.55 0.61 0.72 0.73 0.86 0.99 0.98 0.95 0.95 0.99 1.02 1.04 0.99 0.83 0.72 0.66 0.62 0.61 0.60 0.57 0.59 0.62 0.68 0.73 0.76 0.78 0.79 0.78 0.79 0.93 1.08 1.15
0.21 0.24 0.28 0.31 0.33 0.34 0.35 0.36 0.35 0.33 0.35 0.39 0.44 0.52 0.64 0.80 0.85 0.85 0.89 0.85 0.84 0.87 0.86 0.75 0.67 0.65 0.62 0.59 0.58 0.58 0.56 0.53 0.58 0.67 0.73 0.75 0.78 0.80 0.80 0.80 0.84 0.94 1.01
0.24 0.28 0.32 0.34 0.35 0.36 0.37 0.38 0.38 0.39 0.39 0.39 0.40 0.44 0.54 0.65 0.72 0.77 0.81 0.78 0.73 0.68 0.65 0.64 0.62 0.60 0.58 0.57 0.57 0.57 0.56 0.55 0.59 0.64 0.65 0.66 0.71 0.78 0.78 0.73 0.75 0.86 0.94
0.25 0.28 0.31 0.35 0.37 0.38 0.40 0.41 0.40 0.39 0.40 0.41 0.42 0.46 0.52 0.56 0.61 0.67 0.66 0.62 0.62 0.60 0.58 0.58 0.57 0.59 0.59 0.56 0.54 0.54 0.55 0.56 0.55 0.57 0.57 0.58 0.61 0.72 0.73 0.65 0.68 0.79 0.98
0.23 0.30 0.35 0.36 0.38 0.39 0.42 0.43 0.44 0.45 0.45 0.45 0.48 0.52 0.60 0.66 0.66 0.63 0.58 0.55 0.58 0.58 0.57 0.59 0.56 0.56 0.60 0.59 0.58 0.56 0.57 0.55 0.53 0.54 0.54 0.55 0.59 0.67 0.70 0.66 0.70 0.80 0.89
0.27 0.30 0.36 0.37 0.38 0.40 0.45 0.49 0.49 0.52 0.53 0.51 0.48 0.51 0.76 0.88 0.77 0.62 0.58 0.58 0.61 0.64 0.62 0.60 0.55 0.52 0.55 0.58 0.60 0.59 0.57 0.54 0.52 0.56 0.58 0.58 0.61 0.67 0.67 0.70 0.74 0.79 0.86
0.33 0.36 0.38 0.40 0.40 0.44 0.49 0.51 0.52 0.54 0.53 0.51 0.48 0.47 0.55 0.56 0.55 0.53 0.53 0.54 0.58 0.62 0.64 0.66 0.61 0.52 0.54 0.61 0.64 0.65 0.60 0.53 0.50 0.57 0.62 0.61 0.63 0.67 0.70 0.75 0.77 0.82 0.88
0.38 0.41 0.42 0.41 0.42 0.48 0.49 0.46 0.48 0.51 0.51 0.49 0.48 0.47 0.48 0.49 0.51 0.53 0.54 0.53 0.57 0.60 0.61 0.63 0.63 0.54 0.49 0.55 0.61 0.69 0.71 0.61 0.56 0.65 0.75 0.73 0.70 0.70 0.73 0.76 0.76 0.81 0.85
0.44 0.46 0.46 0.44 0.45 0.46 0.48 0.47 0.48 0.48 0.50 0.51 0.49 0.48 0.49 0.50 0.49 0.51 0.52 0.52 0.55 0.57 0.59 0.61 0.60 0.55 0.52 0.54 0.57 0.59 0.63 0.70 0.85 0.95 0.91 0.91 0.83 0.75 0.76 0.78 0.76 0.76 0.81
0.45 0.46 0.47 0.48 0.50 0.51 0.52 0.50 0.48 0.49 0.51 0.52 0.51 0.50 0.49 0.48 0.47 0.49 0.50 0.53 0.57 0.57 0.55 0.56 0.57 0.57 0.54 0.52 0.52 0.54 0.61 0.78 0.99 1.26 1.42 1.36 1.11 0.89 0.84 0.84 0.80 0.79 0.83
0.43 0.42 0.44 0.47 0.51 0.54 0.58 0.57 0.54 0.54 0.57 0.55 0.52 0.53 0.54 0.53 0.51 0.51 0.54 0.60 0.66 0.65 0.61 0.58 0.55 0.54 0.54 0.54 0.53 0.56 0.69 0.89 1.09 1.32 1.69 1.83 1.47 1.09 0.95 0.96 0.88 0.87 0.91